CW0762 Weather Reports


time (UTC)temp
C
wind
direction
speed
KPH
gust
KPH
rain 1hr
cm
rain 24hr
cm
rain mn
cm
humidity
%
barometer
mb
20260509111551 19 67 0.0 1.6 0.00 0.20 0.00 92 1010.1
20260509110058 19 346 0.0 1.6 0.00 0.20 0.00 91 1009.9
20260509104547 20 347 0.0 1.6 0.00 0.81 0.00 91 1009.5
20260509103048 20 341 0.0 1.6 0.00 0.81 0.00 90 1009.3
20260509101556 20 341 0.0 1.6 0.00 0.81 0.00 90 1009.3
20260509100043 20 341 0.0 1.6 0.00 0.81 0.00 89 1009.2
20260509094542 20 340 0.0 4.8 0.00 0.81 0.00 89 1009.0
20260509093042 21 62 0.0 0.0 0.00 0.81 0.00 88 1008.8
20260509091544 21 62 0.0 0.0 0.00 0.81 0.00 89 1008.5
20260509090043 21 62 0.0 1.6 0.00 0.81 0.00 89 1008.8
20260509084541 21 82 0.0 8.0 0.00 0.84 0.00 89 1008.5
20260509083040 21 65 0.0 9.7 0.00 0.84 0.00 89 1006.8
20260509081537 21 58 4.8 11.3 0.00 0.84 0.00 90 1007.2
20260509080033 21 60 1.6 14.5 0.00 0.84 0.00 90 1008.1
20260509074529 21 145 3.2 11.3 0.00 0.89 0.00 90 1009.1
20260509073027 21 130 6.4 14.5 0.00 0.89 0.00 90 1010.0
20260509071524 20 132 3.2 14.5 0.00 0.89 0.00 91 1010.3
20260509070022 20 129 4.8 14.5 0.00 0.89 0.00 91 1010.7
20260509064520 20 125 3.2 9.7 0.00 0.89 0.00 91 1011.1
20260509063027 20 107 0.0 6.4 0.00 0.89 0.00 90 1011.4
20260509061521 20 86 0.0 4.8 0.00 0.89 0.00 88 1011.3
20260509060017 20 58 0.0 3.2 0.00 0.89 0.00 87 1011.1
20260509054514 21 55 0.0 1.6 0.00 0.89 0.00 86 1011.2
20260509053014 21 55 0.0 0.0 0.00 0.89 0.00 86 1011.8
20260509051509 21 55 0.0 0.0 0.00 0.89 0.00 86 1012.0
20260509050015 21 55 0.0 1.6 0.00 0.89 0.89 85 1012.7
20260509044506 21 56 0.0 0.0 0.00 0.89 0.89 83 1011.1
20260509043005 21 56 0.0 1.6 0.00 0.89 0.89 83 1011.2
20260509041512 22 56 0.0 6.4 0.00 0.89 0.89 83 1011.1
20260509040005 22 53 0.0 6.4 0.00 0.89 0.89 82 1010.6
20260509034504 22 55 1.6 6.4 0.00 0.89 0.89 82 1010.3
20260509033004 22 315 0.0 3.2 0.00 0.89 0.89 82 1011.1
20260509031517 22 38 0.0 3.2 0.00 0.89 0.89 83 1011.5
20260509030005 22 38 0.0 3.2 0.00 0.89 0.89 82 1010.9
20260509024503 22 61 0.0 6.4 0.00 0.89 0.89 82 1010.1
20260509023004 22 46 0.0 4.8 0.00 0.89 0.89 82 1009.8
20260509021505 22 44 0.0 4.8 0.00 0.89 0.89 81 1009.2
20260509020001 22 49 0.0 9.7 0.00 0.89 0.89 81 1009.2
20260509014502 22 45 1.6 8.0 0.00 0.89 0.89 80 1009.0
20260509013003 22 38 1.6 6.4 0.00 0.89 0.89 79 1009.3
20260509011601 22 41 0.0 3.2 0.00 0.89 0.89 78 1009.6
20260509010104 22 40 1.6 8.0 0.00 0.89 0.89 77 1009.3
20260509004609 22 57 0.0 8.0 0.00 0.89 0.89 76 1009.1
20260509003104 23 54 0.0 4.8 0.00 0.89 0.89 75 1008.9
20260509001559 23 111 0.0 6.4 0.00 0.89 0.89 74 1008.8
20260509000058 23 55 1.6 11.3 0.00 0.89 0.89 72 1008.8
20260508234557 23 70 3.2 8.0 0.00 0.89 0.89 72 1009.0
20260508233057 23 50 3.2 9.7 0.00 0.89 0.89 69 1009.2
20260508231558 24 146 1.6 9.7 0.00 0.89 0.89 69 1009.2
20260508230124 24 46 1.6 8.0 0.00 0.89 0.89 68 1009.2
20260508224601 24 56 1.6 9.7 0.00 0.89 0.89 67 1009.4
20260508223053 25 69 1.6 11.3 0.00 0.89 0.89 67 1009.4
20260508221553 25 148 1.6 11.3 0.00 0.89 0.89 66 1009.4
20260508220117 25 65 1.6 11.3 0.00 0.89 0.89 65 1009.5
20260508214556 25 58 1.6 11.3 0.00 0.89 0.89 65 1009.4
20260508213053 25 61 4.8 11.3 0.00 0.89 0.89 65 1009.4
20260508211550 25 59 1.6 11.3 0.00 0.89 0.89 65 1009.8
20260508210048 24 49 1.6 8.0 0.00 0.89 0.89 65 1009.9
20260508204546 23 49 3.2 8.0 0.00 0.89 0.89 66 1010.0
20260508203046 23 35 0.0 11.3 0.00 0.89 0.89 70 1010.9
20260508201545 23 94 0.0 6.4 0.00 0.89 0.89 69 1011.7
20260508200042 23 22 1.6 6.4 0.00 0.89 0.89 69 1011.6
20260508194540 23 61 1.6 11.3 0.00 0.89 0.89 70 1011.7
20260508193040 23 126 0.0 12.9 0.00 0.89 0.89 68 1011.7
20260508191537 24 57 0.0 6.4 0.00 0.89 0.89 67 1011.8
20260508190042 25 64 1.6 12.9 0.00 0.89 0.89 65 1011.9
20260508184543 25 126 3.2 8.0 0.00 0.89 0.89 64 1011.9
20260508183035 25 131 0.0 8.0 0.00 0.89 0.89 65 1012.1
20260508181543 25 144 3.2 9.7 0.00 0.89 0.89 65 1012.4
20260508180028 24 100 3.2 9.7 0.00 0.89 0.89 65 1012.8
20260508174534 24 52 3.2 9.7 0.00 0.89 0.89 65 1012.9
20260508173022 23 56 0.0 6.4 0.00 0.89 0.89 67 1013.2
20260508171518 23 59 1.6 4.8 0.00 0.89 0.89 67 1013.2
20260508170015 22 61 3.2 11.3 0.00 0.89 0.89 69 1013.6
20260508164511 21 120 1.6 8.0 0.00 0.89 0.89 70 1013.9
20260508163007 21 53 1.6 6.4 0.00 0.89 0.89 71 1014.4
20260508161503 20 46 1.6 8.0 0.00 0.89 0.89 78 1014.7
20260508160104 19 120 0.0 6.4 0.00 0.89 0.89 79 1014.8
20260508154557 18 69 1.6 8.0 0.00 0.89 0.89 81 1014.9
20260508153100 18 24 0.0 4.8 0.00 0.89 0.89 85 1015.2
20260508151551 17 74 0.0 4.8 0.00 0.89 0.89 86 1015.0
20260508150053 17 76 0.0 4.8 0.00 0.89 0.89 89 1015.5
20260508144553 17 80 0.0 1.6 0.00 0.89 0.89 93 1015.3
20260508143055 17 81 0.0 3.2 0.00 0.89 0.89 94 1015.5
20260508141556 16 84 0.0 1.6 0.00 0.89 0.89 94 1015.8
20260508140046 16 84 0.0 3.2 0.00 0.89 0.89 94 1015.6
20260508134556 16 84 0.0 0.0 0.03 0.89 0.89 94 1015.5
20260508133046 16 84 0.0 1.6 0.05 0.89 0.89 94 1015.4
20260508131545 15 84 0.0 0.0 0.05 0.89 0.89 94 1015.5
20260508130044 15 84 0.0 1.6 0.20 0.89 0.89 94 1015.6
20260508124544 15 84 0.0 0.0 0.18 0.86 0.86 93 1015.7
20260508123051 15 84 0.0 4.8 0.15 0.84 0.84 93 1015.7
20260508121544 15 97 0.0 1.6 0.15 0.84 0.84 93 1015.4
20260508120045 15 59 0.0 3.2 0.00 0.69 0.69 93 1016.1
20260508114548 15 57 0.0 4.8 0.03 0.69 0.69 93 1015.5
20260508113049 15 86 0.0 3.2 0.13 0.69 0.69 93 1015.5